Regional Weather Roundup
Issued by NWS Cleveland, OH

Home | Current Version | Previous Version | Graphics & Text | Print | Product List | Glossary On
Versions: 1 2 3 4 5 6 7 8 9 10 11 12 13 14 15 16 17 18 19 20 21 22 23 24 25 26 27 28 29 30 31 32 33 34 35 36 37 38 39 40 41 42 43 44 45 46 47 48 49 50
000
ASUS41 KCLE 282102
RWRCLE
OHIO REGIONAL WEATHER ROUNDUP
NATIONAL WEATHER SERVICE CLEVELAND, OH
500 PM EDT FRI AUG 28 2015

NOTE: "FAIR" INDICATES FEW OR NO CLOUDS BELOW 12,000 FEET WITH NO
SIGNIFICANT WEATHER AND/OR OBSTRUCTIONS TO VISIBILITY.

OHZ001>008-015>018-024>027-034-035-043-044-282200-
   NORTHWEST OHIO

CITY           SKY/WX    TMP DP  RH WIND       PRES   REMARKS
DEFIANCE       PTSUNNY   78  56  46 S6        30.15S
FINDLAY        PTSUNNY   78  56  46 CALM      30.14F
TOLEDO EXPRESS PTSUNNY   75  57  53 S3        30.14F
TOLEDO EXEC    CLOUDY    77  54  44 SW5       30.15F
LIMA           PTSUNNY   76  56  49 SW7       30.15F
$$

OHZ009>014-019>023-028>033-038-089-282200-
   NORTHEAST OHIO

CITY           SKY/WX    TMP DP  RH WIND       PRES   REMARKS
CLE-HOPKINS    PTSUNNY   74  57  55 N10       30.17F
CLE-LAKEFRONT  SUNNY     73  58  59 N10       30.15F
CUY CO. ARPT   MOSUNNY   75  59  57 N12       30.17F
LORAIN-ELYRIA  MOSUNNY   73  58  59 N9        30.16S
ASHTABULA      SUNNY     72  59  63 VRB6      30.18F
AKRON-CANTON   MOSUNNY   79  51  37 VRB3      30.15F
WOOSTER        SUNNY     77  50  38 SW3       30.16F
MANSFIELD      PTSUNNY   79  53  40 W7        30.15F
YOUNGSTOWN     PTSUNNY   76  53  44 E5        30.16F
$$

OHZ042-051>053-060>062-070>072-077>081-282200-
  SOUTHWEST OHIO

CITY           SKY/WX    TMP DP  RH WIND       PRES   REMARKS
CINC-COVINGTON PTSUNNY   79  56  45 E5        30.13F
CINC-LUNKEN    MOSUNNY   79  58  48 S3        30.12F
HAMILTON       MOSUNNY   80  57  45 CALM      30.13F
DAYTON         PTSUNNY   77  56  48 SE9       30.15F
WRIGHT-PAT AFB PTSUNNY   78  55  45 E6        30.14F
DAYTON GENERAL MOSUNNY   77  55  46 SE6       30.14F
WILMINGTON     MOSUNNY   77  55  46 VRB5      30.14F
$$

OHZ036-037-039>041-045>050-054>059-063>069-073>076-082>088-282200-
  CENTRAL AND SOUTHEAST OHIO

CITY           SKY/WX    TMP DP  RH WIND       PRES   REMARKS
COLUMBUS       PTSUNNY   79  54  41 E5        30.13F
OSU AIRPORT    PTSUNNY   79  54  41 E5        30.14F
BOLTON FIELD   SUNNY     79  55  44 W3        30.15F
RICKENBACK AFB PTSUNNY   78  54  43 S5        30.14S
NEWARK         SUNNY     79  55  43 CALM      30.14F
MARION         PTSUNNY   76  53  44 SE5       30.15F
LANCASTER      MOSUNNY   79  54  41 CALM      30.14F
ZANESVILLE     SUNNY     81  50  33 CALM      30.14F
NEW PHILLY     SUNNY     80  52  37 S6        30.15F
$$



USA.gov is the U.S. government's official web portal to all federal, state and local government web resources and services.